Le nostre stazioni meteo in Italia

Pubblicità
Il mio iltempo24.it
Edinburgh, Gran Bretagna (3160): Temperatura & dewpoint: 02.04.2020 00:00:00 - 08.04.2020 00:00:00 (BST)Edinburgh, Gran Bretagna (3160): velocità del vento: 02.04.2020 00:00:00 - 08.04.2020 00:00:00 (BST)Edinburgh, Gran Bretagna (3160): direzione del vento: 02.04.2020 00:00:00 - 08.04.2020 00:00:00 (BST)Edinburgh, Gran Bretagna (3160): visibility: 02.04.2020 00:00:00 - 08.04.2020 00:00:00 (BST)
Data & Tempo tt [°C] td [°C] ff [km/h] ff [kn] dd vv [km]
08.04.2020 00:00:00 7,0 2,0 8 4 O 10
07.04.2020 23:00:00 6,0 2,0 13 7 SO 10
07.04.2020 22:00:00 8,0 2,0 15 8 SSO 10
07.04.2020 21:00:00 8,0 2,0 13 7 SO 10
07.04.2020 20:00:00 10,0 2,0 13 7 SSO 10
07.04.2020 19:00:00 12,0 1,0 26 14 SO 10
07.04.2020 18:00:00 14,0 2,0 26 14 SSO 10
07.04.2020 17:00:00 14,0 1,0 31 17 SSO 10
07.04.2020 16:00:00 15,0 3,0 29 16 SO 10
07.04.2020 15:00:00 15,0 3,0 34 18 SO 10
07.04.2020 14:00:00 14,0 3,0 34 18 SO 10
07.04.2020 13:00:00 14,0 3,0 28 15 SO 10
07.04.2020 12:00:00 13,0 4,0 24 13 SO 10
07.04.2020 11:00:00 11,0 4,0 22 12 SO 10
07.04.2020 10:00:00 10,0 5,0 18 10 SO 10
07.04.2020 09:00:00 8,0 5,0 9 5 O 10
07.04.2020 08:00:00 5,0 3,0 0 0 N 10
07.04.2020 07:00:00 1,0 1,0 9 5 OSO 10
07.04.2020 06:00:00 2,0 1,0 5 3 O 10
07.04.2020 05:00:00 0,0 0,0 9 5 OSO 10
07.04.2020 04:00:00 3,0 2,0 8 4 O 10
07.04.2020 03:00:00 4,0 2,0 8 4 OSO 10
07.04.2020 02:00:00 3,0 2,0 11 6 OSO 10
07.04.2020 01:00:00 3,0 1,0 9 5 OSO 10
07.04.2020 00:00:00 3,0 2,0 9 5 SO 10
06.04.2020 23:00:00 5,0 2,0 13 7 OSO 10
06.04.2020 22:00:00 7,0 3,0 11 6 SO 10
06.04.2020 21:00:00 6,0 2,0 13 7 OSO 10
06.04.2020 20:00:00 10,0 2,0 15 8 O 10
06.04.2020 19:00:00 11,0 2,0 22 12 O 10
06.04.2020 18:00:00 12,0 2,0 26 14 O 10
06.04.2020 17:00:00 12,0 2,0 26 14 O 10
06.04.2020 16:00:00 13,0 2,0 34 18 OSO 10
06.04.2020 15:00:00 13,0 4,0 34 18 OSO 10
06.04.2020 14:00:00 14,0 3,0 37 20 OSO 10
06.04.2020 13:00:00 12,0 4,0 31 17 OSO 10
06.04.2020 12:00:00 13,0 4,0 34 18 OSO 10
06.04.2020 11:00:00 12,0 4,0 31 17 OSO 10
06.04.2020 10:00:00 10,0 4,0 37 20 OSO 10
06.04.2020 09:00:00 10,0 6,0 31 17 SO 10
06.04.2020 08:00:00 10,0 6,0 22 12 SO 10
06.04.2020 07:00:00 10,0 7,0 28 15 SO 10
06.04.2020 06:00:00 10,0 7,0 26 14 SO 10
06.04.2020 05:00:00 11,0 8,0 34 18 SO 10
06.04.2020 04:00:00 13,0 10,0 41 22 SSO 10
06.04.2020 03:00:00 13,0 10,0 42 23 S 10
06.04.2020 02:00:00 15,0 9,0 37 20 S 10
06.04.2020 01:00:00 15,0 9,0 21 11 S 10
06.04.2020 00:00:00 15,0 8,0 22 12 SSE 10
05.04.2020 23:00:00 16,0 6,0 11 6 SSE 10
05.04.2020 22:00:00 16,0 5,0 9 5 SE 10
05.04.2020 21:00:00 17,0 5,0 18 10 SSE 10
05.04.2020 20:00:00 18,0 4,0 16 9 SSE 10
05.04.2020 19:00:00 18,0 5,0 18 10 SSE 10
05.04.2020 18:00:00 19,0 4,0 21 11 S 10
05.04.2020 17:00:00 19,0 4,0 22 12 S 10
05.04.2020 16:00:00 19,0 4,0 28 15 S 10
05.04.2020 15:00:00 17,0 4,0 22 12 SSE 10
05.04.2020 14:00:00 16,0 2,0 26 14 SSE 10
05.04.2020 13:00:00 15,0 4,0 18 10 SSE 10
05.04.2020 12:00:00 11,0 6,0 16 9 NE 10
05.04.2020 11:00:00 11,0 5,0 18 10 ENE 10
05.04.2020 10:00:00 10,0 4,0 16 9 ENE 10
05.04.2020 09:00:00 9,0 4,0 13 7 E 10
05.04.2020 08:00:00 9,0 4,0 13 7 ESE 10
05.04.2020 07:00:00 7,0 3,0 13 7 SE 10
05.04.2020 06:00:00 8,0 2,0 8 4 - 10
05.04.2020 05:00:00 10,0 3,0 11 6 ESE 10
05.04.2020 04:00:00 8,0 4,0 8 4 O 10
05.04.2020 03:00:00 9,0 4,0 9 5 SO 10
05.04.2020 02:00:00 9,0 3,0 11 6 OSO 10
05.04.2020 01:00:00 9,0 3,0 5 3 - 10
05.04.2020 00:00:00 9,0 4,0 15 8 SSO 10
04.04.2020 23:00:00 9,0 5,0 9 5 S 10
04.04.2020 22:00:00 9,0 5,0 8 4 SE 10
04.04.2020 21:00:00 10,0 4,0 13 7 S 10
04.04.2020 20:00:00 10,0 4,0 13 7 S 10
04.04.2020 19:00:00 10,0 4,0 16 9 SSO 10
04.04.2020 18:00:00 10,0 4,0 22 12 SSO 10
04.04.2020 17:00:00 10,0 4,0 26 14 SSO 10
04.04.2020 16:00:00 11,0 4,0 31 17 SO 10
04.04.2020 15:00:00 11,0 5,0 22 12 SSO 10
04.04.2020 14:00:00 11,0 5,0 31 17 SSO 10
04.04.2020 13:00:00 10,0 4,0 21 11 SO 10
04.04.2020 12:00:00 - - - - - -
04.04.2020 11:00:00 10,0 5,0 21 11 SSO 10
04.04.2020 10:00:00 8,0 5,0 15 8 OSO 10
04.04.2020 09:00:00 7,0 5,0 18 10 SO 10
04.04.2020 08:00:00 5,0 4,0 8 4 SSO 10
04.04.2020 07:00:00 4,0 3,0 4 2 O 10
04.04.2020 06:00:00 4,0 3,0 13 7 SSO 10
04.04.2020 05:00:00 4,0 3,0 13 7 SO 10
04.04.2020 04:00:00 4,0 4,0 11 6 SO 10
04.04.2020 03:00:00 5,0 4,0 11 6 SO 10
04.04.2020 02:00:00 3,0 2,0 13 7 SO 10
04.04.2020 01:00:00 3,0 3,0 8 4 SO 10
04.04.2020 00:00:00 4,0 3,0 11 6 SO 10
03.04.2020 23:00:00 5,0 4,0 15 8 SO 10
03.04.2020 22:00:00 5,0 4,0 11 6 SO 10
03.04.2020 21:00:00 6,0 4,0 15 8 OSO 10
03.04.2020 20:00:00 7,0 5,0 15 8 OSO 10
03.04.2020 19:00:00 8,0 5,0 16 9 OSO 10
03.04.2020 18:00:00 8,0 5,0 18 10 OSO 10
03.04.2020 17:00:00 8,0 5,0 18 10 OSO 10
03.04.2020 16:00:00 8,0 4,0 21 11 OSO 10
03.04.2020 15:00:00 9,0 2,0 18 10 O 10
03.04.2020 14:00:00 8,0 1,0 18 10 O 10
03.04.2020 13:00:00 7,0 1,0 22 12 O 10
03.04.2020 12:00:00 7,0 1,0 21 11 O 10
03.04.2020 11:00:00 7,0 1,0 16 9 O 10
03.04.2020 10:00:00 6,0 3,0 18 10 OSO 10
03.04.2020 09:00:00 5,0 2,0 15 8 OSO 10
03.04.2020 08:00:00 - - - - - -
03.04.2020 07:00:00 - - - - - -
03.04.2020 06:00:00 1,0 0,0 9 5 OSO 10
03.04.2020 05:00:00 2,0 0,0 11 6 O 10
03.04.2020 04:00:00 2,0 -1,0 11 6 OSO 10
03.04.2020 03:00:00 1,0 -1,0 8 4 OSO 10
03.04.2020 02:00:00 1,0 -2,0 11 6 O 10
03.04.2020 01:00:00 0,0 -3,0 13 7 OSO 10
03.04.2020 00:00:00 2,0 -3,0 13 7 O 10
02.04.2020 23:00:00 2,0 -3,0 15 8 OSO 10
02.04.2020 22:00:00 4,0 -3,0 13 7 O 10
02.04.2020 21:00:00 3,0 -3,0 15 8 SO 10
02.04.2020 20:00:00 6,0 -3,0 18 10 O 10
02.04.2020 19:00:00 7,0 -3,0 24 13 O 10
02.04.2020 18:00:00 9,0 -2,0 28 15 O 10
02.04.2020 17:00:00 9,0 -1,0 24 13 O 10
02.04.2020 16:00:00 10,0 0,0 22 12 O 10
02.04.2020 15:00:00 10,0 1,0 28 15 O 10
02.04.2020 14:00:00 10,0 1,0 29 16 O 10
02.04.2020 13:00:00 10,0 1,0 31 17 O 10
02.04.2020 12:00:00 9,0 2,0 29 16 O 10
02.04.2020 11:00:00 9,0 5,0 31 17 O 10
02.04.2020 10:00:00 9,0 4,0 31 17 O 10
02.04.2020 09:00:00 10,0 4,0 34 18 O 10
02.04.2020 08:00:00 8,0 7,0 29 16 OSO 10
02.04.2020 07:00:00 8,0 7,0 31 17 OSO 10
02.04.2020 06:00:00 8,0 5,0 35 19 SO 10
02.04.2020 05:00:00 7,0 4,0 29 16 OSO 10
02.04.2020 04:00:00 7,0 4,0 31 17 OSO 10
02.04.2020 03:00:00 7,0 3,0 31 17 OSO 10
02.04.2020 02:00:00 7,0 3,0 22 12 OSO 10
02.04.2020 01:00:00 7,0 4,0 24 13 OSO 10
02.04.2020 00:00:00 8,0 6,0 21 11 OSO 10

tt = Temperatura
td = dewpoint
ff = velocità del vento
dd = direzione del vento
vv = visibility

Stazioni seguenti

WeatherPro
AMSI
MeteoEarth